SCP
0 0 0 1 1 1 1 1 1 0 1 1 1 1 1 1 2 2 2 2 1 1 1 1 1 1 1 0 0 0 0 0 0 0 0 0 0 0 0 0 0 0 0
0 0 0 0 0 0 1 1 1 1 1 1 1 1 1 1 2 2 2 2 2 2 1 1 1 1 1 1 0 0 0 0 0 0 0 0 0 0 0 0 0 0 0
0 0 0 0 0 0 1 1 1 1 1 1 1 1 1 1 2 1 1 1 1 2 1 1 1 1 1 1 1 1 1 0 0 0 0 0 0 0 0 0 0 0 0
0 0 0 0 0 0 1 1 1 1 1 1 1 1 1 1 1 1 1 1 1 1 1 1 1 1 1 1 1 1 1 0 0 0 0 0 0 0 0 0 0 0 0
0 0 0 0 0 0 1 1 1 1 1 1 1 1 1 1 1 1 1 1 1 0 1 1 1 1 1 1 1 1 1 0 0 0 0 0 0 0 0 0 0 0 0
0 0 0 0 0 0 1 1 1 0 0 1 1 1 1 1 2 1 1 1 0 0 0 0 0 0 0 0 0 0 0 0 0 0 0 0 0 0 0 0 0 0 0
0 0 0 0 0 0 0 1 1 0 0 0 0 1 1 1 2 1 1 1 0 0 0 0 0 0 0 0 0 0 0 0 0 0 0 0 0 0 0 0 0 0 0
0 0 0 0 0 0 0 0 0 0 0 0 0 0 1 1 1 1 1 1 1 0 0 0 0 0 0 0 0 0 0 0 0 0 0 0 0 0 0 0 0 0 0
0 0 0 0 0 0 0 0 0 0 0 0 0 0 0 1 1 1 1 1 1 1 1 0 0 0 0 0 0 0 0 0 0 0 0 0 0 0 0 0 0 0 0
0 0 0 0 0 0 0 0 0 0 0 0 0 0 0 1 1 2 2 2 1 1 1 1 1 0 0 0 0 0 0 0 0 0 0 0 0 0 0 0 0 0 0
0 0 0 0 0 0 0 0 0 0 0 0 0 0 0 1 2 2 2 2 2 1 1 1 1 0 0 0 0 0 0 0 0 0 0 0 0 0 0 0 0 0 0
0 0 0 0 0 0 0 0 0 0 0 0 0 0 1 2 2 2 2 2 2 1 1 1 0 0 0 0 0 0 0 0 0 0 0 0 0 0 0 0 0 0 0
0 0 0 0 0 0 0 0 0 0 0 0 0 0 0 1 1 1 1 1 1 1 0 0 0 0 0 0 0 0 0 0 0 0 0 0 0 0 0 0 0 0 0
0 0 0 0 0 0 0 0 0 0 0 0 0 0 0 0 0 0 0 0 0 0 0 0 0 0 0 0 0 0 0 0 0 0 0 0 0 0 0 0 0 0 0
0 0 0 0 0 0 0 0 0 0 0 0 0 0 0 0 0 0 0 0 0 0 0 0 0 0 0 0 0 0 0 0 0 0 0 0 0 0 0 0 0 0 0
0 0 0 0 0 0 0 0 0 0 0 0 0 0 0 0 0 0 0 0 0 0 0 0 0 0 0 0 0 0 0 0 0 0 0 0 0 0 0 0 0 0 0
0 0 0 0 0 0 0 0 0 0 0 0 0 0 0 0 0 0 0 0 0 0 0 0 0 0 0 0 0 0 0 0 0 0 0 0 0 0 0 0 0 0 0
0 0 0 0 0 0 0 0 0 0 0 0 0 0 0 0 0 0 0 0 0 0 0 0 0 0 0 0 0 0 0 0 0 0 0 0 0 0 0 0 0 0 0
0 0 0 0 0 0 0 0 0 0 0 0 0 0 0 0 0 0 0 0 0 0 0 0 0 0 0 0 0 0 0 0 0 0 0 0 0 0 0 0 0 0 0
0 0 0 0 0 0 0 0 0 0 0 0 0 0 0 0 0 0 0 0 0 0 0 0 0 0 0 0 0 0 0 0 0 0 0 0 0 0 0 0 0 0 0
0 0 0 0 0 0 0 0 0 0 0 0 0 0 0 0 0 0 0 0 0 0 0 0 0 0 0 0 0 0 0 0 0 0 0 0 0 0 0 0 0 0 0
0 0 0 0 0 0 0 0 0 0 0 0 0 0 0 0 0 0 0 0 0 0 0 0 0 0 0 0 0 0 0 0 0 0 0 0 0 0 0 0 0 0 0
0 0 0 0 0 0 0 0 0 0 0 0 0 0 0 0 0 0 0 0 0 0 0 0 0 0 0 0 0 0 0 0 0 0 0 0 0 0 0 0 0 0 0
0 0 0 0 0 0 0 0 0 0 0 0 0 0 0 0 0 0 0 0 0 0 0 0 0 0 0 0 0 0 0 0 0 0 0 0 0 0 0 0 0 0 0
0 0 0 0 0 0 0 0 0 0 0 0 0 0 0 0 0 0 0 0 0 0 0 0 0 0 0 0 0 0 0 0 0 0 0 0 0 0 0 0 0 0 0
0 0 0 0 0 0 0 0 0 0 0 0 0 0 0 0 0 0 0 0 0 0 0 0 0 0 0 0 0 0 0 0 0 0 0 0 0 0 0 0 0 0 0
Wind_Speed
3 4 4 4 4 4 4 3 3 3 2 2 1 1 2 2 2 3 4 4 4 4 4 3 4 4 3 4 4 4 4 4 4 4 5 5 5 4 3 4 4 4 4
3 5 4 4 4 4 4 3 3 2 2 1 1 1 1 1 2 3 4 4 4 4 3 4 3 4 3 4 5 4 4 3 3 3 5 5 4 2 4 3 3 4 4
2 3 4 4 4 4 4 3 3 2 2 2 1 2 1 1 2 3 4 5 5 4 4 4 4 4 3 4 5 5 5 4 3 3 3 4 4 5 3 4 4 4 4
2 2 3 4 4 4 4 4 4 3 2 1 1 2 1 2 2 3 3 4 5 5 5 5 5 4 4 4 5 5 5 5 5 3 3 4 5 5 5 4 5 6 6
2 2 2 3 4 4 4 4 4 4 3 2 1 1 1 2 2 2 3 3 4 5 5 5 5 5 4 5 5 5 5 4 5 4 4 4 5 5 6 7 7 6 6
1 2 3 3 4 4 4 4 4 4 4 3 3 2 2 3 3 4 4 4 3 4 6 6 5 5 5 5 5 5 5 4 5 4 4 4 4 5 6 8 8 8 7
1 2 3 3 4 4 4 4 4 4 4 4 4 4 3 3 3 3 3 4 4 4 6 6 5 5 5 5 5 5 5 5 5 5 4 4 5 5 6 7 8 9 8
1 2 2 3 3 3 4 4 3 4 4 4 4 4 3 2 2 3 3 3 3 4 5 5 5 5 6 5 5 4 5 5 5 6 6 4 5 5 6 6 7 9 8
1 2 2 2 3 3 3 3 3 3 4 4 4 4 4 3 3 3 3 3 3 3 4 4 5 5 5 5 5 4 5 5 5 5 6 5 5 5 5 6 6 7 9
1 2 2 2 2 2 3 3 4 3 4 4 4 3 4 3 3 3 3 3 4 4 4 4 4 5 5 5 5 4 5 5 5 5 6 6 5 5 5 5 6 7 8
2 2 1 1 2 2 2 3 3 4 4 4 4 3 3 3 3 3 4 4 4 4 4 4 4 4 5 5 5 5 5 5 6 6 6 7 7 6 6 5 5 6 7
2 2 2 2 1 2 2 2 2 3 3 4 4 3 3 3 3 3 3 4 4 4 5 4 4 5 5 5 5 5 6 6 6 6 7 7 6 7 7 6 6 6 7
3 3 2 2 2 2 1 1 2 2 3 3 3 3 3 3 3 3 4 4 4 4 4 4 4 5 5 5 5 5 6 6 6 6 7 7 8 8 7 8 7 7 7
4 4 3 3 2 2 2 2 2 2 2 3 3 3 3 3 3 3 4 4 4 4 4 4 4 5 5 5 5 5 6 6 6 6 7 7 7 8 9 8 8 8 8
6 6 5 4 4 3 2 2 2 2 2 2 3 3 3 3 3 3 4 4 4 4 4 4 4 5 4 4 5 6 6 6 7 7 7 7 8 9 9 8 9 9 8
7 7 6 5 5 4 4 3 3 2 2 2 3 3 3 3 3 3 4 4 4 4 4 4 4 5 4 5 7 7 6 6 7 7 7 7 7 8 10 11 11 11 10
8 7 7 6 6 5 4 4 3 2 2 2 3 3 3 3 3 3 3 4 4 4 4 4 4 5 5 7 8 8 7 6 6 7 7 6 7 8 8 10 11 10 11
8 7 7 6 5 5 4 3 2 2 2 3 3 3 3 3 3 3 4 4 4 4 4 5 5 5 6 8 8 9 7 6 7 7 8 8 8 8 10 10 10 10 9
7 7 6 6 5 5 4 3 3 3 3 3 3 3 3 3 3 4 4 4 4 4 5 5 5 6 6 8 9 10 6 6 7 7 7 8 8 10 12 11 10 10 9
5 5 4 4 5 5 4 4 4 4 4 4 4 3 3 4 4 4 4 4 4 5 5 5 5 6 6 8 9 10 5 6 6 6 7 8 10 12 13 10 10 11 10
5 4 4 5 5 4 4 5 5 6 4 3 3 3 3 4 4 4 4 4 4 4 5 5 5 5 6 7 9 10 6 6 7 6 6 6 11 13 14 13 9 11 12
4 5 5 5 4 4 5 6 6 5 3 2 3 3 4 3 3 3 4 4 4 4 4 5 5 4 5 6 7 10 10 9 8 7 6 7 12 14 14 11 11 14 11
5 4 5 5 4 4 5 7 6 3 3 3 3 4 3 3 3 4 4 4 3 3 4 4 5 5 4 5 8 9 10 11 8 7 10 12 13 13 10 10 12 9 6
5 4 5 5 5 5 6 6 4 3 3 4 4 4 4 4 3 3 3 4 4 4 4 4 5 5 5 5 5 5 6 8 8 7 8 10 11 9 9 8 7 5 5
5 5 6 7 7 6 6 5 4 4 4 4 4 4 4 4 4 4 4 5 5 5 5 5 5 6 6 7 10 9 7 7 7 7 6 5 5 5 5 5 5 5 5
6 6 7 7 7 6 6 5 5 5 5 5 5 4 4 3 3 4 4 6 7 9 10 10 9 7 9 12 13 13 13 13 11 7 5 5 5 6 6 6 6 5 5
Wind_Direction
10 14 14 14 13 14 15 12 17 13 16 24 16 6 12 17 18 15 12 5 3 1 357 346 335 333 325 321 314 303 300 301 309 299 294 285 274 279 293 299 306 309 307
16 18 16 22 17 6 2 357 356 0 8 6 2 334 328 355 12 8 8 2 1 357 357 353 342 339 330 326 324 320 312 312 318 303 301 296 282 289 303 302 302 307 312
2 10 16 19 19 8 354 347 344 343 356 1 22 26 24 15 15 7 3 358 356 352 355 349 340 339 336 329 327 325 314 304 305 306 300 301 297 312 285 300 300 304 306
337 358 8 12 15 360 351 348 349 349 350 11 35 36 18 347 334 341 349 353 357 359 357 353 347 340 340 336 329 329 316 308 303 299 283 289 300 297 297 291 295 302 299
312 345 1 358 2 2 1 357 359 359 356 3 7 346 328 324 331 345 356 357 353 358 356 352 347 343 339 336 333 331 329 322 314 311 308 297 295 289 286 292 298 296 294
313 350 360 4 6 7 12 12 12 12 5 10 14 9 357 350 353 354 351 346 345 350 355 350 349 348 345 344 344 342 339 338 329 320 310 305 297 295 287 287 295 295 296
313 336 346 356 358 1 2 13 16 13 11 19 20 14 4 355 351 346 349 344 344 349 351 351 351 352 350 347 348 348 344 340 334 328 319 312 303 300 294 289 295 296 295
327 324 328 332 338 349 352 0 11 14 14 14 13 10 3 356 352 355 352 347 341 347 345 347 349 350 350 348 350 347 343 338 331 326 323 317 313 310 302 296 295 295 291
303 313 317 325 334 347 352 357 7 15 12 9 9 8 7 5 357 353 350 344 345 342 345 346 348 348 349 348 347 344 338 332 328 323 320 315 311 308 305 300 293 287 290
284 302 323 336 342 357 5 13 14 10 5 8 5 1 358 357 353 352 356 351 344 341 343 346 346 344 344 342 339 335 333 329 324 320 318 316 312 307 306 300 296 287 283
263 278 287 312 335 353 1 7 14 15 10 5 358 358 353 356 2 1 354 348 342 340 341 339 340 339 337 336 332 330 325 323 323 322 320 320 318 313 312 306 303 299 291
252 250 254 282 322 340 343 353 5 3 355 352 355 357 352 350 354 352 346 341 338 340 341 339 339 337 335 336 332 328 327 324 324 325 323 320 318 315 313 309 306 301 299
240 244 251 265 286 312 319 334 349 343 340 344 347 351 351 347 350 350 346 345 345 344 343 344 340 335 336 335 334 330 327 324 320 320 319 318 318 315 314 311 308 305 302
241 241 248 253 263 284 288 294 311 320 326 332 335 337 340 342 344 344 343 342 341 341 341 341 333 329 331 331 331 327 323 320 319 318 317 316 314 313 312 310 309 308 306
239 238 244 246 246 254 262 275 287 300 308 315 322 325 331 336 340 341 340 339 339 337 336 332 328 325 324 328 327 324 319 317 315 314 313 312 311 312 309 307 307 306 302
240 241 243 240 240 241 246 253 263 274 286 296 305 316 324 330 333 333 334 332 333 332 331 326 321 321 321 327 324 318 315 314 310 310 308 306 301 305 307 305 304 303 299
243 240 240 238 236 235 236 242 249 259 270 284 296 306 314 319 321 322 320 321 323 323 321 317 314 313 318 321 323 322 314 308 305 304 304 303 305 303 305 305 303 302 300
241 238 237 239 238 233 232 237 237 240 257 274 286 296 298 302 310 312 311 314 316 314 310 310 309 308 312 316 319 318 312 304 301 301 302 302 306 309 309 307 304 302 301
242 239 234 236 235 227 219 216 223 233 247 261 272 280 282 286 295 299 304 310 309 306 305 303 303 303 305 311 315 316 310 302 303 303 302 301 302 307 309 304 301 300 301
242 239 234 231 230 226 207 210 223 230 241 252 264 274 275 275 280 288 295 299 298 296 299 298 299 298 300 306 311 314 304 301 303 302 299 298 301 305 307 303 300 299 302
241 231 224 226 232 214 198 215 227 236 245 252 259 268 270 270 273 280 286 290 293 293 293 294 297 298 298 301 308 312 307 303 302 301 302 304 307 307 309 306 301 300 304
240 225 224 234 230 206 202 221 234 239 235 236 248 258 264 267 269 274 282 284 284 285 288 292 296 297 298 300 306 312 310 308 300 297 298 301 306 308 309 308 307 308 307
244 229 227 233 232 214 210 226 236 220 208 224 241 252 261 265 265 264 269 274 273 274 282 286 290 296 299 301 306 308 309 308 302 294 296 301 306 306 305 305 306 307 302
241 234 225 229 236 224 222 231 227 191 197 222 238 243 247 255 257 259 258 262 264 267 273 281 286 292 295 297 301 302 302 302 300 298 299 301 302 301 301 300 302 299 298
238 226 226 232 236 227 226 225 205 188 207 226 235 239 240 245 251 254 255 260 262 266 275 278 281 286 290 295 303 305 303 302 300 305 301 299 300 297 298 299 300 299 298
238 232 231 233 236 227 227 218 199 195 207 225 232 233 234 238 245 256 269 265 269 276 277 278 283 287 288 298 301 303 305 308 311 311 298 297 296 296 298 299 299 297 296